Location: Newark
(28.9833°N, 10.0667°W)
Time: 15:32:40
(UTC+00:00)

Hubble Space Telescope - Pass Details

Date: 17 December 2019
Orbit: 536 x 540 km, 28.5° (Epoch: 17 January)

Event Time Altitude Azimuth Distance (km) Brightness Sun altitude
Exits shadow 06:20:10 21° 260° (W) 1,235 2.1 -14.4°
Maximum altitude 06:22:51 81° 175° (S) 546 0.8 -13.8°
Drops below altitude 10° 06:26:59 10° 88° (E) 1,786 4.6 -12.9°
Sets 06:29:15 0° 88° (E) 2,677 5.7 -12.5°
